EHI
0 0 0 0 0 0 0 0 1 1 3 5 5 5 4 4 11 19 21 17 11 8 11 14 15 17 19 17 14 11 8 7 7 6 6 5 2 0 0 0 1 4 5 4
0 0 0 0 0 0 0 1 2 2 4 6 6 5 3 4 9 17 20 17 11 9 12 14 16 18 18 17 15 13 11 9 8 7 6 4 2 1 0 0 0 2 4 5
0 0 0 0 0 0 1 2 3 3 4 6 6 4 3 4 8 14 18 17 12 10 13 15 17 17 17 17 17 16 14 12 10 8 6 4 3 1 1 0 0 1 3 5
0 0 0 0 0 0 1 2 2 2 2 4 3 2 3 5 8 12 16 18 15 13 15 18 19 19 18 19 19 18 17 16 13 10 8 5 4 3 2 1 1 1 2 4
0 0 0 0 0 0 0 1 1 0 1 1 1 1 2 5 9 12 16 20 19 17 18 20 22 24 24 23 21 18 19 19 17 15 11 8 6 5 4 3 3 2 3 3
0 0 0 0 0 0 0 0 0 0 0 0 0 1 2 5 10 14 18 22 23 20 20 22 25 28 29 27 23 20 19 20 20 19 15 10 7 6 6 5 4 4 4 4
0 0 0 0 0 0 0 0 0 0 0 0 0 1 2 5 9 12 16 21 23 21 20 22 25 28 29 27 23 21 19 18 17 18 16 11 8 7 6 6 5 5 4 5
0 0 0 0 0 0 0 0 0 0 0 0 0 1 3 4 6 8 11 15 19 21 21 23 24 25 26 24 21 20 19 16 15 14 12 9 7 7 6 5 5 5 5 4
0 0 0 0 0 0 0 0 0 0 0 0 0 1 3 5 6 7 9 12 15 18 20 21 21 20 21 20 18 19 20 18 17 15 11 8 8 8 7 7 6 5 4 4
0 0 0 0 0 0 0 0 0 0 0 0 0 0 2 6 8 8 9 10 11 13 14 15 15 16 16 16 16 19 21 22 20 18 15 11 9 8 7 7 7 5 4 4
0 0 0 0 0 0 0 0 0 0 0 0 0 0 2 6 8 9 8 8 9 9 10 11 12 13 13 12 14 18 21 22 22 21 20 16 12 10 9 8 8 7 6 6
0 0 0 0 0 0 0 0 0 0 0 0 0 1 3 7 9 10 9 10 10 10 10 11 12 12 11 11 13 18 21 22 23 23 23 20 15 14 13 13 13 13 12 11
0 0 0 0 0 0 0 0 0 0 0 0 0 1 5 9 11 11 12 13 12 12 12 12 13 12 10 10 13 17 19 20 22 23 22 20 17 16 16 15 15 15 14 13
0 0 0 0 0 0 0 0 0 0 0 0 1 3 7 11 12 12 14 14 13 11 11 12 12 11 9 9 12 14 14 15 18 19 19 18 15 14 14 14 14 14 13 11
0 0 0 0 0 0 0 0 0 0 0 1 3 5 8 12 13 13 13 12 11 11 10 10 9 8 6 7 10 12 12 12 13 14 15 15 13 13 13 13 12 12 11 10
0 0 0 0 0 0 0 0 0 1 1 4 7 7 9 14 15 13 10 10 10 11 10 9 7 6 5 6 8 12 13 13 13 13 13 13 12 13 14 13 11 10 10 9
0 0 0 0 0 0 0 0 2 3 4 7 8 8 11 14 15 12 9 10 11 11 11 9 8 6 6 7 8 10 12 14 14 13 12 12 11 13 14 13 10 9 8 8
0 0 0 0 0 0 0 1 3 4 6 8 9 9 11 13 14 12 10 11 12 10 9 8 6 5 6 7 8 8 9 11 13 12 11 11 11 12 14 12 10 8 7 7
0 0 0 0 0 0 0 1 2 3 5 7 8 8 10 11 11 10 10 9 8 6 6 5 4 4 5 6 7 6 7 8 10 11 11 10 11 13 13 11 8 7 7 7
0 0 0 0 0 0 0 1 1 1 2 4 6 8 9 8 7 7 6 4 3 2 3 3 2 2 3 4 4 3 5 6 9 11 12 11 11 13 12 10 8 7 8 7
0 0 0 0 0 0 1 1 1 0 1 3 6 8 9 6 3 3 2 2 3 3 3 3 2 1 2 2 1 1 3 6 9 11 12 10 9 10 10 9 8 8 8 8
0 0 0 0 0 1 2 2 1 1 2 3 5 8 8 5 2 1 2 3 5 6 5 3 2 2 2 2 1 1 3 7 11 12 11 9 8 8 8 8 7 8 8 8
0 0 0 0 0 1 2 3 2 2 3 3 4 7 7 5 3 2 2 3 5 7 7 5 4 4 4 4 3 3 5 8 11 10 8 7 6 6 7 7 7 8 8 7
0 0 0 0 0 1 2 3 3 3 4 5 6 8 8 6 4 4 4 4 4 5 6 6 5 5 4 4 4 5 7 9 10 8 6 5 5 7 8 8 8 9 8 7
0 0 0 0 0 1 2 4 4 5 6 8 9 10 9 8 7 6 6 6 5 5 5 6 6 5 4 4 5 6 8 9 9 7 5 3 4 6 7 6 6 6 6 6
0 0 0 0 0 0 2 4 6 7 9 9 10 11 10 9 10 9 7 7 6 5 5 5 5 5 4 5 7 7 7 8 8 7 5 3 3 4 5 4 3 3 4 4
Wind_Speed
2 2 3 6 6 6 3 3 5 6 3 3 3 5 7 9 9 9 9 9 9 9 7 7 8 8 7 6 6 5 5 4 3 2 2 2 1 1 1 1 2 3 3 3
4 4 9 6 4 3 3 3 5 4 1 3 3 3 6 8 10 11 12 11 11 8 7 7 7 7 7 7 6 6 5 5 4 3 2 2 2 1 1 1 1 1 2 3
5 8 6 3 3 3 5 4 4 3 3 5 4 2 0 3 4 6 8 9 10 12 11 9 8 7 7 7 7 7 6 5 5 4 2 2 2 1 1 1 0 0 1 2
6 7 4 4 5 4 4 4 2 1 3 2 2 0 4 2 2 5 7 7 9 9 9 8 8 7 8 7 7 6 6 6 5 4 4 4 3 2 2 1 1 0 1 2
7 4 3 5 6 4 5 2 2 1 3 3 4 2 5 0 3 6 7 8 9 9 9 9 9 9 7 7 6 5 6 5 4 4 4 4 3 2 1 1 1 1 1 1
7 6 4 5 4 3 3 5 7 7 6 3 3 1 5 3 6 6 6 7 8 8 8 8 8 7 5 5 5 5 6 5 4 5 4 4 4 3 3 2 1 0 0 0
7 7 4 1 1 2 5 7 5 6 5 3 3 1 6 6 6 8 8 8 7 7 8 8 8 7 7 6 5 5 6 4 4 4 4 4 4 4 4 3 2 2 1 1
1 6 5 2 4 4 2 8 8 4 3 4 3 3 6 5 3 6 7 8 7 7 7 7 8 8 8 7 6 6 6 5 4 4 4 4 4 3 2 3 3 2 2 2
3 6 5 3 2 6 2 2 7 8 2 0 3 3 6 3 2 4 5 6 7 7 6 6 6 7 7 7 7 7 6 5 4 4 4 3 3 3 3 2 2 2 2 1
6 3 6 5 4 3 4 5 6 6 4 1 3 2 4 2 0 2 3 5 5 5 5 5 5 5 6 6 6 5 6 6 5 4 4 3 3 3 3 2 2 2 2 1
5 3 5 4 1 2 2 3 5 5 6 6 2 6 5 5 4 4 3 4 5 6 5 5 4 4 4 4 5 5 5 5 4 3 3 3 2 2 2 2 2 2 2 2
3 6 2 6 5 3 4 4 6 5 3 4 4 6 4 4 4 5 5 5 5 6 6 5 4 4 3 4 4 5 5 5 5 4 3 2 2 2 2 2 2 1 2 2
4 6 2 8 9 6 3 0 3 5 5 4 4 6 2 2 4 4 5 5 6 5 5 5 5 4 3 3 3 4 4 4 4 4 4 3 2 2 2 2 2 2 2 1
6 5 6 7 7 4 4 4 1 5 3 3 5 5 2 2 3 3 4 5 6 5 5 5 5 4 3 3 3 3 3 3 4 4 4 3 3 3 3 2 2 2 2 2
6 3 2 4 3 1 2 3 1 2 5 6 7 6 7 6 5 5 5 6 7 6 5 6 5 4 3 3 2 2 2 3 3 4 3 3 3 2 2 2 2 2 2 2
4 3 2 3 3 3 3 3 1 0 2 4 4 2 4 4 4 4 4 5 6 6 6 5 5 5 4 3 3 2 2 2 3 3 3 2 2 2 2 2 2 2 1 1
3 3 3 3 4 4 3 3 0 1 3 6 5 5 4 5 6 6 6 5 5 6 6 5 4 5 5 4 3 3 2 2 2 2 2 2 2 2 2 2 1 2 2 2
5 4 3 0 3 1 7 3 3 5 2 2 3 4 6 6 4 3 5 5 5 5 5 5 4 4 4 4 4 3 3 2 2 2 2 2 2 2 1 2 1 1 2 2
6 7 4 3 1 4 5 3 1 4 3 2 5 5 5 6 6 3 2 5 4 3 4 4 4 4 4 4 4 4 3 2 1 1 1 2 2 2 2 2 2 2 1 1
5 6 5 4 2 3 4 4 2 7 1 3 4 6 6 6 3 3 1 4 4 3 3 3 3 4 3 3 4 4 2 2 1 1 2 2 2 2 2 2 2 1 2 2
3 3 3 3 3 5 5 4 4 4 4 2 3 5 5 3 5 4 4 4 3 3 3 4 5 4 3 3 4 3 2 2 2 1 1 1 2 3 2 1 2 2 2 1
4 3 2 3 2 6 5 3 3 4 2 2 2 3 4 4 4 4 4 3 3 3 2 3 4 3 2 3 4 3 2 2 1 1 1 0 1 1 2 2 1 1 2 2
3 5 5 6 6 6 2 3 4 5 4 2 2 3 6 6 5 4 3 2 2 2 2 2 4 3 2 2 3 3 2 1 1 1 1 1 1 1 1 2 2 2 2 2
2 1 3 1 1 1 1 2 1 2 3 3 3 5 5 6 5 4 3 1 1 1 2 2 3 3 1 1 2 2 2 2 2 2 1 1 1 2 1 1 2 2 2 2
3 1 2 1 2 1 1 1 2 3 4 4 3 3 5 6 5 4 3 2 2 1 1 2 3 3 2 2 1 2 2 2 2 2 2 1 1 2 1 1 2 2 2 4
2 3 4 5 6 4 3 2 1 3 3 4 4 3 3 4 4 4 3 3 3 2 2 2 2 2 2 1 1 1 1 2 1 1 2 1 1 1 1 1 0 1 1 2
Wind_Direction
299 69 251 237 210 202 225 259 273 274 260 105 127 140 164 168 168 166 166 167 171 175 172 165 164 160 156 161 162 163 160 164 148 133 127 124 131 144 135 158 168 169 169 168
357 270 247 239 230 226 235 250 270 292 329 93 111 140 171 176 183 176 174 174 175 171 168 174 168 163 162 167 171 169 171 170 167 164 163 156 155 162 166 182 147 170 169 174
225 248 250 255 253 249 261 216 213 235 24 41 72 11 249 197 174 174 178 177 178 174 175 176 171 171 170 173 177 175 176 171 170 163 138 116 89 58 48 44 38 191 155 147
255 254 255 249 250 211 256 242 184 165 81 328 82 292 283 197 180 185 189 180 177 175 172 173 172 176 180 181 179 173 172 171 170 158 147 147 144 155 187 179 159 70 106 124
261 257 243 245 237 207 226 223 119 96 91 35 11 92 280 242 195 200 190 179 175 175 174 176 176 176 175 172 169 170 163 165 162 154 155 151 148 158 143 126 98 80 66 107
260 265 227 225 235 193 146 60 37 45 64 32 296 130 277 239 204 186 180 170 169 173 172 174 172 162 159 160 161 162 158 163 163 160 159 157 158 155 143 147 155 171 112 58
305 300 278 212 104 337 81 83 38 12 20 264 268 145 247 249 202 170 168 172 173 169 167 164 161 164 166 163 163 159 157 158 165 162 164 164 165 165 169 180 179 174 169 208
271 295 287 248 177 189 182 132 147 173 200 273 310 231 257 267 211 162 161 164 163 157 157 159 163 166 168 168 169 166 167 166 170 164 167 164 161 167 179 186 180 184 190 209
186 265 289 286 217 146 153 155 157 132 132 146 275 288 308 345 72 122 140 144 156 154 151 155 163 166 166 166 172 175 170 165 173 174 165 162 165 171 181 185 176 175 189 193
167 258 296 304 22 24 147 150 94 105 133 237 290 260 240 253 75 83 134 151 154 149 151 155 158 166 171 171 167 165 164 172 177 173 171 163 170 176 177 164 169 180 194 196
150 163 304 354 42 247 31 72 99 113 146 152 217 270 228 188 169 147 134 139 153 156 157 160 158 154 155 156 156 159 162 160 159 167 166 161 163 167 161 169 182 189 191 180
156 130 248 270 267 208 152 155 139 141 196 157 160 263 259 176 155 140 130 129 131 137 135 130 121 112 119 133 152 158 161 166 167 170 152 153 153 158 169 184 198 187 191 191
124 110 58 341 342 353 23 22 134 128 122 146 158 251 281 117 113 124 121 121 122 125 122 116 110 112 122 136 146 160 166 169 164 154 150 157 167 174 189 195 195 184 178 171
113 109 152 193 227 253 303 309 113 111 140 184 200 209 252 160 140 132 123 122 122 121 131 127 126 132 129 122 133 143 151 153 146 148 156 167 186 196 199 193 190 190 177 166
86 108 190 223 237 281 288 305 343 156 179 177 201 193 209 192 167 156 142 131 123 124 127 139 142 138 128 119 120 121 129 148 148 148 161 186 190 184 184 185 195 189 178 181
71 107 46 341 339 5 336 322 332 356 137 138 134 214 211 169 127 128 143 141 137 143 145 147 145 141 141 138 137 130 118 129 137 144 167 183 175 172 180 188 188 177 175 171
76 95 84 295 318 23 319 280 230 104 135 145 174 209 163 143 150 160 155 149 153 155 149 147 155 162 159 156 149 140 143 123 109 126 144 154 161 167 184 179 150 161 178 157
128 106 120 90 35 256 251 274 110 101 66 92 125 147 158 154 150 143 150 145 141 142 150 154 161 163 161 150 146 140 134 129 136 147 154 162 150 166 168 144 149 165 155 158
137 132 117 111 118 282 301 327 66 97 14 57 110 112 111 102 75 37 90 120 140 148 149 156 163 161 153 146 148 138 129 125 123 160 184 179 163 154 157 166 180 181 156 166
66 99 113 121 147 229 265 311 58 91 15 325 113 127 131 103 104 240 184 114 119 121 128 126 127 120 123 131 123 115 117 122 162 220 213 191 167 164 180 189 191 191 166 186
31 46 112 146 189 252 271 304 39 96 223 264 115 131 138 151 187 184 150 129 129 126 122 116 117 121 136 133 121 123 134 178 208 212 215 197 189 183 185 185 193 186 179 177
168 153 177 141 169 248 289 45 117 192 193 122 113 133 121 113 107 115 121 115 104 96 100 117 122 129 139 132 128 137 186 217 181 162 171 204 229 196 164 160 178 181 174 173
169 181 179 175 205 234 259 158 173 154 144 166 160 154 132 123 123 121 111 120 119 107 102 127 132 131 131 140 145 161 215 201 148 143 186 229 241 232 200 182 188 193 185 185
302 78 99 76 274 265 25 70 94 141 148 167 154 142 139 135 143 141 142 152 118 99 110 126 127 134 154 172 172 185 186 164 155 173 217 238 224 227 230 205 190 189 198 197
243 99 93 184 243 27 7 75 112 87 95 102 107 124 140 137 142 145 150 157 149 113 118 133 144 158 184 189 200 205 175 153 171 196 212 227 234 222 224 230 215 198 204 192
243 175 170 214 216 175 214 234 125 105 104 121 118 106 122 134 136 135 148 167 160 154 137 124 146 172 191 175 199 222 176 161 176 219 230 224 218 208 200 203 300 35 158 183